Theta_e
313 313 314 314 314 313 312 312 312 310 308 315 311 310 309 304 300 310 313 311 308 303 296 299 297 295 295 298 298 298 297 296 297 297 298 296 297 297 296 294 294 295 295 294 293 294 291 293 291 293 294 293 296 297 298 300 300 299 296 298 297 303 294 292 291 294 294 296 298 298 298 297 295 296 296 295 292 293 293 296 299 297 296 297 297 296 297
313 313 314 314 314 313 312 312 312 311 308 309 309 311 305 308 303 306 312 311 308 302 293 293 294 295 297 297 296 298 296 296 296 296 297 296 296 295 295 297 297 294 297 296 292 294 290 293 293 292 295 293 298 297 298 301 299 300 296 295 297 292 293 294 289 290 291 293 295 294 297 297 293 292 295 295 296 295 294 297 299 296 292 294 297 292 293
313 313 314 313 313 312 312 312 311 311 310 309 310 311 308 306 306 309 308 310 307 297 298 296 294 294 294 294 294 295 296 297 296 296 295 297 296 296 295 295 297 296 297 295 296 296 294 291 294 294 294 294 299 298 297 301 300 302 305 305 302 295 291 292 288 286 284 284 286 288 290 292 293 294 294 294 294 293 295 295 297 292 293 295 296 294 301
313 313 314 314 313 312 312 312 312 311 310 307 313 307 305 300 296 300 302 305 303 301 302 299 297 295 295 294 293 294 293 296 297 297 296 297 297 297 297 297 298 296 296 294 293 293 296 294 292 294 293 294 296 296 297 298 301 304 305 303 301 294 294 293 293 291 290 291 290 291 294 292 290 291 292 292 294 295 295 296 295 292 293 293 294 297 300
313 313 314 313 313 312 312 312 311 311 309 309 311 307 304 303 298 297 295 302 300 298 300 298 298 295 296 292 293 292 292 294 295 298 294 297 296 297 296 295 295 294 295 292 292 294 293 296 294 293 293 294 295 298 296 298 302 306 301 303 299 296 291 291 293 291 291 292 291 292 293 290 290 290 290 292 293 294 295 294 291 296 295 289 294 302 300
313 313 314 314 313 312 312 312 311 310 309 308 314 306 306 298 299 301 302 294 292 295 295 298 298 298 298 294 295 292 292 293 292 296 298 298 298 295 297 297 296 296 294 294 291 292 293 294 291 294 294 294 295 295 297 297 300 301 298 301 297 293 289 290 291 290 291 292 292 293 293 291 291 290 290 290 292 292 292 292 293 294 293 291 294 299 300
313 314 314 314 313 313 312 312 311 310 307 309 314 307 303 305 303 302 303 296 296 296 297 299 298 297 299 296 295 292 292 291 293 292 295 296 296 297 292 293 295 296 297 296 293 294 289 289 293 293 293 293 294 292 295 297 300 299 298 298 299 295 290 291 292 290 291 291 292 293 292 291 291 291 291 292 291 291 292 292 293 293 293 294 295 299 301
313 314 314 314 314 314 313 312 311 310 307 314 312 306 304 303 301 298 302 303 302 301 297 298 298 295 298 294 295 294 293 292 294 295 294 292 294 298 294 294 296 297 298 298 292 293 295 294 291 294 294 293 294 293 294 294 298 299 296 297 298 296 291 293 291 290 289 291 292 293 292 291 290 292 292 291 291 292 293 292 293 294 293 294 297 301 299
313 313 314 314 314 313 313 312 311 309 308 315 309 307 308 306 306 307 304 297 299 302 297 297 297 295 297 295 295 297 295 293 294 295 297 295 294 296 294 296 296 296 297 296 295 297 297 298 295 297 296 291 296 294 294 296 295 297 297 297 297 297 292 293 291 288 287 290 291 291 292 291 293 295 297 297 297 296 296 298 299 294 294 295 295 297 298
313 313 314 314 314 314 313 313 312 309 308 311 310 307 309 308 307 305 306 298 299 296 297 295 296 293 296 297 296 295 295 296 295 294 297 299 299 297 298 297 296 295 295 294 295 298 298 298 297 299 297 299 299 300 297 296 296 296 295 297 295 295 293 290 289 286 287 290 291 290 290 292 289 293 294 294 295 296 299 301 301 301 302 297 294 296 304
313 313 313 314 314 314 314 314 314 309 312 312 311 308 309 307 307 305 304 298 297 296 296 296 296 297 297 298 297 298 298 298 298 294 293 300 299 299 299 299 296 294 294 296 299 301 300 300 301 302 301 300 299 299 300 300 300 299 296 296 295 296 294 291 292 286 288 289 290 291 287 281 283 296 296 296 293 294 293 294 296 301 303 302 304 304 305
312 313 313 313 314 314 315 314 314 311 308 307 311 309 310 307 305 306 305 297 295 297 297 295 296 297 297 297 298 298 298 298 298 301 297 298 300 300 301 300 300 293 299 302 303 302 302 303 302 302 300 300 299 299 299 298 298 300 299 296 295 294 294 292 292 289 287 290 290 286 280 283 294 296 298 300 298 297 296 297 299 301 303 304 303 302 303
312 312 313 313 314 314 314 314 314 313 310 312 314 310 310 309 306 306 305 301 295 298 296 296 297 298 297 299 298 298 299 299 300 303 301 301 299 301 301 300 300 300 305 301 302 301 297 294 295 295 295 296 297 298 297 297 297 299 299 300 296 293 293 293 290 291 290 287 286 278 281 290 293 295 300 302 301 300 299 296 300 302 303 304 302 301 303
312 312 312 313 314 314 314 314 313 313 311 310 313 311 311 309 310 309 308 302 297 299 297 297 297 298 298 298 299 298 299 300 300 301 300 302 300 300 301 305 303 305 304 304 301 299 295 295 291 292 292 293 293 292 294 296 297 297 297 299 299 296 296 294 289 292 284 287 286 286 291 289 293 294 297 298 295 297 295 290 296 300 302 303 302 302 302
311 312 312 313 313 314 314 314 314 313 312 309 312 312 313 311 310 310 303 307 298 298 296 295 297 299 299 298 299 298 298 299 299 299 300 301 301 302 303 304 307 304 304 302 299 298 295 293 288 286 286 286 282 285 293 290 295 297 297 298 299 299 293 294 289 288 291 286 285 284 284 280 289 296 301 301 302 302 302 297 295 300 301 302 302 301 301
311 311 312 312 313 313 313 314 314 313 313 310 312 311 312 310 307 309 307 307 303 294 298 301 302 301 299 299 299 298 297 297 298 298 299 300 301 302 305 307 307 306 304 301 299 297 294 290 286 284 283 284 286 284 286 291 290 295 297 298 297 297 297 295 291 290 288 287 283 282 280 284 295 297 299 302 301 302 303 294 290 298 301 301 302 301 301
311 311 311 312 313 313 313 313 313 313 313 310 310 311 312 312 312 312 311 308 306 298 301 303 303 302 300 298 298 299 300 297 299 295 294 296 299 300 303 306 307 306 303 300 298 295 291 287 286 286 285 281 281 283 285 286 287 289 294 295 295 294 295 294 288 289 289 287 284 282 288 286 293 298 299 301 301 301 298 284 285 296 300 302 302 301 301
311 311 311 312 312 313 313 313 313 313 312 311 310 313 313 313 311 311 311 307 305 303 304 304 302 300 299 301 299 300 300 300 299 300 299 299 299 300 300 303 301 303 304 297 298 294 291 289 287 286 286 287 288 285 282 285 286 286 287 288 288 290 291 291 287 289 289 287 287 288 290 296 298 298 301 302 303 299 288 283 294 300 301 302 302 302 301
311 311 311 311 312 312 313 313 313 313 313 311 311 311 313 313 313 311 310 305 303 299 304 305 308 304 304 304 304 302 302 301 303 298 297 296 299 302 302 302 303 299 301 298 296 293 291 289 291 288 287 287 289 285 286 284 285 286 288 285 286 286 289 290 289 287 287 289 286 286 290 295 300 302 302 303 298 286 286 298 303 302 302 303 303 302 302
311 311 311 311 312 312 312 312 312 312 313 312 310 311 312 312 312 312 311 307 303 304 306 306 307 305 306 305 302 301 302 301 302 299 297 294 300 300 299 296 301 303 299 300 293 293 291 289 290 289 288 288 289 290 286 285 288 285 286 289 288 288 286 286 286 289 288 287 284 284 280 293 301 300 300 302 292 295 301 301 302 304 302 302 302 302 302
311 311 310 311 311 311 312 312 312 312 312 312 309 310 312 312 312 313 312 313 307 304 305 305 305 307 307 307 308 307 305 301 302 299 302 301 303 301 291 292 298 299 296 297 290 292 293 290 291 289 292 291 291 289 286 287 287 293 292 290 291 295 287 287 288 292 284 284 282 283 291 299 303 300 293 300 301 303 303 302 299 302 302 302 302 302 302
310 310 310 310 311 311 311 311 312 312 312 312 310 308 311 311 309 312 313 312 309 306 308 307 309 309 310 311 311 310 308 307 306 307 303 301 302 301 301 302 301 301 301 301 296 294 295 295 295 291 289 290 292 288 290 287 286 291 294 293 286 295 292 294 288 294 290 287 292 296 298 301 303 303 302 305 305 304 304 302 301 301 302 304 302 302 303
310 310 310 310 310 311 311 311 311 311 311 312 311 308 306 307 309 312 312 311 311 310 311 310 309 310 311 312 314 314 314 314 312 309 309 305 302 301 301 301 301 305 304 303 299 297 298 297 294 296 292 294 291 289 289 290 288 291 288 295 294 296 297 297 295 294 296 297 297 299 299 299 300 302 304 303 303 304 304 303 302 303 303 304 302 302 302
310 310 310 310 310 310 310 311 311 311 311 311 311 308 307 308 308 309 310 307 306 306 308 306 306 305 306 307 310 314 314 312 312 313 314 312 302 302 303 304 305 304 304 307 307 301 300 299 296 296 291 295 295 291 288 287 288 293 292 292 294 297 296 294 292 296 291 288 299 296 297 300 301 302 304 305 305 304 304 304 303 303 304 304 304 303 303
310 310 310 310 310 310 310 310 311 310 310 309 310 311 310 308 309 308 308 305 306 304 300 305 306 307 309 312 313 311 313 315 316 314 312 311 309 304 303 307 308 305 306 307 305 304 303 298 295 295 291 298 297 290 297 290 290 295 289 294 293 293 299 294 295 295 291 292 298 299 300 301 302 301 301 301 303 305 305 305 305 305 305 304 304 305 303
310 310 310 310 310 310 310 309 310 311 311 311 310 308 306 306 309 310 310 309 307 306 301 301 304 309 311 311 309 311 313 314 314 313 312 312 312 311 309 309 307 310 307 305 306 303 303 301 301 299 294 294 300 294 293 295 296 297 293 294 298 298 297 291 296 293 295 298 299 299 299 299 299 300 302 304 304 304 305 305 304 304 303 304 305 305 304
310 310 310 310 310 309 309 309 310 310 311 310 309 309 308 308 310 308 308 309 306 301 302 302 306 308 310 308 312 313 314 313 313 312 312 312 311 311 310 309 308 307 306 304 307 306 304 302 299 296 297 297 299 297 298 295 294 294 292 296 298 296 293 296 294 291 291 292 296 300 293 293 298 301 302 303 305 304 304 304 303 303 303 304 303 304 305
309 309 309 310 309 309 309 309 310 310 311 310 309 309 310 308 310 310 310 307 306 301 302 303 304 307 311 306 312 312 313 314 313 311 311 311 311 310 309 308 308 306 306 303 299 300 300 296 296 301 299 299 296 295 298 299 298 295 295 295 297 295 298 295 292 292 292 299 302 302 301 300 301 302 304 305 306 305 303 303 303 304 304 305 304 302 303
309 309 309 309 309 308 308 309 309 310 310 310 309 308 308 309 311 310 310 310 308 306 306 306 308 307 301 305 312 312 314 313 312 311 310 310 310 310 309 308 307 307 306 305 304 302 301 300 304 299 298 302 300 295 296 292 292 291 296 300 298 300 304 300 300 300 300 302 303 303 301 299 302 304 304 304 306 304 303 304 305 304 304 304 304 304 302
309 309 309 308 308 308 308 308 309 310 310 309 307 305 306 306 308 310 310 310 309 309 303 300 299 303 310 310 310 311 311 312 312 311 309 309 309 309 309 308 307 308 307 304 304 298 302 302 302 304 303 306 298 297 293 294 292 295 301 302 301 301 302 303 304 301 299 303 304 304 302 303 304 303 304 305 306 305 303 304 304 304 304 305 304 304 305
309 308 308 308 307 308 308 308 309 309 309 306 305 304 305 302 307 311 310 311 311 309 306 304 300 307 307 312 310 310 310 311 311 310 310 310 310 309 311 310 310 309 302 300 302 303 303 299 301 300 304 303 301 295 293 293 291 294 299 302 302 301 301 302 303 304 304 304 304 303 303 303 303 302 302 302 303 304 304 304 305 305 305 305 305 305 305
308 308 307 307 307 308 308 309 308 309 309 306 304 304 305 306 308 310 311 311 312 309 305 299 301 302 302 306 310 312 310 311 312 311 313 313 309 311 311 312 307 309 306 303 303 303 301 304 300 301 298 304 302 297 296 293 291 293 300 301 303 304 305 304 304 304 304 305 302 300 300 301 301 300 301 305 305 305 304 305 305 305 306 307 307 307 306
308 307 307 307 307 307 308 308 309 308 307 309 310 309 309 308 309 310 311 312 311 308 308 302 298 301 300 304 308 310 312 310 309 309 308 314 309 311 308 310 309 307 310 304 299 297 303 300 301 298 302 306 298 296 294 292 295 300 303 302 302 303 304 305 305 306 305 304 303 299 299 301 303 304 304 305 304 304 305 304 305 306 304 303 303 303 304
307 307 306 307 308 308 309 309 310 309 309 306 307 309 311 309 310 309 312 313 310 311 309 302 299 298 299 308 302 307 311 305 305 308 305 310 311 309 306 306 307 302 306 301 303 301 302 301 297 297 301 298 301 296 290 294 299 300 301 302 303 303 304 304 304 303 303 303 304 303 305 305 304 305 304 304 304 305 306 306 304 303 303 302 302 302 303
307 307 307 308 309 310 310 309 308 307 305 305 307 311 311 309 310 311 311 310 305 303 303 304 303 298 296 298 298 303 311 307 304 307 304 307 312 306 306 303 304 299 301 307 301 300 299 299 301 296 294 300 295 291 294 297 299 301 302 302 303 303 301 300 301 303 304 304 303 303 304 303 302 301 302 303 303 304 304 304 305 303 301 301 301 301 302
307 308 309 310 310 311 309 309 308 306 307 308 310 314 312 312 312 313 313 312 309 303 302 303 302 298 298 293 294 303 310 305 307 307 306 307 306 309 306 304 297 301 307 301 298 301 299 304 299 292 298 293 291 294 298 301 301 302 303 302 304 302 302 303 303 305 304 303 303 303 302 301 301 302 303 303 304 304 304 303 303 303 302 301 302 302 303
308 309 310 311 310 308 306 308 310 309 310 312 314 315 314 314 314 313 310 309 313 313 304 302 299 300 301 300 304 307 307 301 308 305 305 303 301 304 302 300 297 303 301 299 299 297 301 305 297 293 293 291 295 302 303 304 303 302 303 304 305 306 305 305 304 303 301 301 301 301 301 301 302 303 303 303 303 304 302 301 302 302 302 301 302 302 302
309 309 310 307 306 306 307 307 310 313 314 315 315 312 311 313 304 305 306 303 309 310 306 305 299 303 306 302 298 309 307 303 307 301 302 304 301 300 303 299 299 299 292 295 297 305 300 297 294 293 295 300 303 303 304 305 306 306 306 305 305 306 306 305 304 302 300 299 299 300 300 301 301 303 302 302 303 302 302 303 303 304 303 302 302 303 302
309 308 307 307 307 306 307 309 316 316 315 316 315 308 306 309 305 300 301 304 306 301 306 303 301 305 303 301 303 311 306 302 300 301 297 304 300 295 300 293 299 298 292 293 296 304 294 294 295 294 293 299 300 304 307 306 306 306 306 306 306 306 307 305 304 303 302 302 302 303 302 301 300 301 304 303 303 304 303 303 303 303 303 303 303 303 302
307 304 305 305 307 309 314 314 315 315 314 308 309 306 301 306 301 295 305 297 297 303 305 299 305 305 306 302 302 303 311 304 298 298 300 301 307 297 300 299 297 295 288 288 293 302 294 288 293 292 291 298 301 305 305 304 303 305 306 305 306 306 306 305 305 306 307 308 307 305 305 303 302 301 302 303 302 300 301 303 304 304 304 303 303 303 301
304 306 306 306 309 309 311 313 314 313 308 304 304 305 302 294 303 303 301 297 297 299 307 305 306 303 306 305 304 301 309 310 307 306 304 299 308 304 297 293 300 291 289 288 297 298 296 292 291 289 292 300 301 302 303 303 303 305 306 305 305 305 305 305 306 306 307 306 305 305 305 304 304 304 303 303 303 303 302 302 303 304 303 304 302 302 302
307 307 308 309 309 310 311 311 310 306 305 307 299 291 294 299 303 301 302 295 297 303 303 305 301 303 303 305 305 306 306 311 308 306 301 297 302 299 297 297 296 289 286 295 300 297 293 287 287 289 297 302 303 303 304 303 304 304 306 306 305 305 304 305 305 306 306 305 304 304 305 306 305 305 305 304 304 304 304 304 303 304 303 303 303 302 302
307 308 310 307 308 307 309 300 306 305 293 293 291 289 295 291 296 297 299 304 310 305 306 310 310 310 310 311 306 308 307 310 304 302 300 297 302 301 296 292 291 286 292 299 296 291 287 287 286 292 300 301 301 302 304 305 305 305 305 306 305 306 305 305 306 305 306 306 305 305 305 305 305 305 305 305 304 304 305 305 305 305 304 303 302 302 302
309 309 306 306 304 304 304 290 305 301 293 290 290 288 292 292 296 299 298 302 305 304 309 305 305 305 303 309 305 305 305 306 307 303 300 301 298 294 293 288 289 297 301 295 293 288 289 289 294 298 300 300 301 303 303 304 305 305 305 306 305 305 305 305 306 306 305 305 306 306 306 305 305 304 305 305 305 303 303 304 305 305 304 303 302 302 302
305 301 298 301 298 298 295 289 298 294 290 293 295 297 296 296 300 301 301 307 307 307 307 308 307 305 303 307 307 305 305 301 306 299 295 298 295 295 292 291 297 296 292 288 289 288 288 289 297 298 299 299 300 302 304 305 305 304 304 305 305 304 304 303 304 304 305 304 305 304 303 304 304 304 304 304 305 305 304 303 303 303 302 302 301 301 301
302 294 294 292 289 291 293 290 291 291 298 300 299 302 301 304 304 304 307 309 306 307 307 308 307 306 304 308 302 302 305 303 299 299 299 297 293 290 297 300 297 292 290 287 285 286 288 292 294 296 298 299 301 302 304 305 306 306 304 303 304 304 301 300 299 302 304 305 305 304 304 304 303 303 303 304 304 304 304 305 305 303 302 301 300 300 301
301 301 291 291 289 291 297 291 294 298 301 302 304 304 305 306 306 307 309 310 307 309 308 308 307 307 305 304 303 302 303 302 298 299 299 293 292 295 300 294 288 289 285 284 284 286 291 293 296 298 299 300 301 302 303 304 305 305 304 304 303 303 301 299 299 299 301 302 303 303 304 304 304 304 305 303 304 304 305 304 304 303 302 301 301 301 301
291 295 300 292 289 291 293 299 303 303 304 304 307 306 307 309 308 307 310 310 311 309 308 307 305 305 304 309 304 301 301 301 298 297 298 296 296 292 288 289 289 291 290 287 288 291 292 295 296 297 299 300 301 301 302 303 305 305 305 304 304 303 301 300 300 300 300 300 300 301 302 304 304 304 304 303 303 304 304 304 303 303 302 302 301 300 300
303 294 293 292 296 295 298 302 303 302 305 304 305 306 307 307 306 307 310 311 308 308 310 307 306 305 301 303 301 299 297 300 293 291 297 294 290 286 287 284 285 285 291 291 291 292 293 297 299 299 300 300 301 301 301 303 304 305 305 304 304 304 303 302 302 301 300 300 300 300 301 303 304 304 304 304 302 302 304 303 303 302 302 301 300 299 299
294 294 298 295 297 299 302 303 301 300 302 304 305 305 308 306 305 309 313 309 309 309 308 306 306 302 300 299 293 294 293 299 297 292 293 291 292 291 288 284 286 287 290 292 293 294 297 298 299 298 299 300 301 300 301 302 303 303 304 305 305 304 303 303 302 301 301 301 300 301 303 303 302 302 302 302 303 303 303 303 302 302 301 301 300 299 299
300 295 297 305 300 300 301 297 299 298 299 303 303 304 305 304 305 307 313 311 310 309 305 302 300 299 294 292 291 288 291 297 295 294 293 292 294 291 289 287 290 292 294 297 297 298 298 299 299 298 299 299 300 301 301 301 302 302 303 303 304 305 304 303 302 301 300 301 301 302 302 302 303 303 303 304 303 302 302 302 302 301 301 300 300 299 299
293 294 299 304 305 303 303 304 304 302 302 303 303 306 308 305 309 311 313 311 309 305 302 302 300 295 290 290 295 297 298 295 293 293 291 294 296 292 292 293 294 295 295 295 296 297 298 299 299 299 298 298 299 299 300 300 300 301 301 301 302 303 303 301 301 301 301 300 301 302 303 303 303 302 304 304 302 301 300 300 301 301 300 300 300 300 300
Wind_Speed
22 23 23 23 23 24 25 25 24 22 21 5 3 2 4 4 3 5 8 10 4 10 8 3 5 5 2 3 4 2 5 4 5 6 8 4 4 5 9 6 1 6 3 4 5 4 7 6 5 3 6 9 8 6 9 8 2 1 3 2 3 1 3 6 6 4 3 5 5 3 6 1 2 8 8 7 5 4 3 4 3 3 3 4 4 2 5
22 22 22 22 23 24 24 24 24 20 13 2 3 4 3 0 2 4 7 12 3 6 4 5 5 5 4 5 5 3 4 8 11 9 9 6 5 5 4 4 8 5 4 4 3 3 4 4 3 5 2 4 4 6 9 11 7 6 3 2 4 2 2 1 6 3 2 4 4 2 2 4 5 4 7 7 6 3 1 2 2 3 2 3 5 6 5
21 22 20 21 23 24 24 24 23 20 11 3 1 3 2 1 2 1 6 11 8 6 1 6 5 4 5 5 9 6 4 4 4 6 8 6 4 1 6 4 2 5 2 5 5 7 4 6 4 2 2 3 3 6 9 9 8 7 6 3 2 4 2 2 2 4 5 5 5 4 2 4 2 3 6 8 10 10 2 3 1 2 1 1 1 6 7
21 21 20 20 22 24 24 23 22 20 13 2 1 2 0 3 3 4 5 7 6 5 2 3 4 4 2 7 4 3 4 2 5 4 6 6 5 7 1 1 4 4 4 8 8 9 9 4 4 1 3 1 1 2 8 8 8 9 10 8 1 3 2 3 2 2 1 4 4 3 2 1 2 5 6 7 7 7 3 1 0 3 6 6 6 6 11
21 21 20 20 22 23 24 24 23 20 11 4 4 3 3 2 4 3 4 3 6 4 6 3 2 2 1 3 4 7 5 3 3 6 4 8 5 4 7 4 2 4 6 5 8 5 8 8 8 4 4 1 2 3 4 5 12 12 6 8 2 3 4 5 8 10 8 6 5 3 2 3 3 4 6 5 7 7 6 3 4 1 5 6 2 7 8
21 22 21 20 21 23 23 24 24 22 14 2 1 4 4 3 1 1 1 1 2 4 6 6 6 4 1 4 0 4 6 9 4 2 4 2 5 2 3 9 7 5 5 2 4 3 5 4 4 1 2 1 2 2 6 8 8 8 5 5 3 3 3 2 5 7 6 4 5 3 3 3 2 2 3 5 6 7 6 6 3 3 3 5 8 6 7
20 21 22 20 21 22 23 25 24 22 19 1 2 5 2 3 2 1 2 1 1 2 3 4 6 9 6 3 4 6 8 8 4 2 5 5 7 6 6 6 7 5 1 2 4 1 1 3 2 0 3 3 2 1 2 4 8 7 5 5 3 1 4 3 3 8 5 5 4 3 4 3 2 2 3 3 4 3 3 2 2 2 4 6 7 6 8
19 20 21 20 20 21 23 24 25 24 18 5 8 5 0 2 1 3 2 4 3 3 2 2 5 7 5 3 3 2 4 8 3 3 5 3 5 3 8 5 7 6 6 5 7 5 5 3 2 0 1 2 1 1 1 2 2 5 4 2 2 2 4 5 4 4 4 3 3 2 4 5 3 4 2 2 0 1 2 2 1 0 2 5 9 10 7
17 19 20 20 19 20 21 22 25 25 16 5 6 3 4 1 1 1 2 3 4 3 3 3 3 3 3 4 2 2 3 5 1 6 3 3 3 3 6 4 5 5 7 8 7 3 3 2 5 3 1 2 1 1 1 2 2 4 3 3 2 2 3 1 2 3 3 1 3 3 4 1 4 6 7 7 5 5 4 4 3 1 4 6 9 7 6
16 17 18 19 18 19 20 21 23 24 16 6 2 3 1 1 1 1 0 3 3 2 1 1 1 4 1 2 2 2 2 1 2 5 3 4 3 0 3 2 4 4 7 9 6 3 2 4 4 2 2 2 4 2 3 0 3 1 2 2 2 2 4 4 4 4 3 1 2 5 1 5 4 3 5 5 5 4 5 5 5 5 2 3 3 4 7
14 15 17 18 18 18 18 20 20 21 10 5 3 2 1 1 0 1 1 4 1 2 1 2 2 1 1 1 4 2 3 4 1 1 2 3 5 2 2 2 4 3 5 4 2 3 5 5 6 6 7 8 7 5 5 8 7 4 2 1 2 1 2 3 0 2 4 2 2 3 2 4 2 6 3 3 3 3 1 3 3 2 3 3 5 7 7
13 14 15 16 17 16 17 17 18 18 11 2 1 4 1 0 1 2 2 3 2 0 2 2 2 1 2 1 0 3 6 6 4 2 7 3 2 2 3 4 1 4 3 3 7 10 10 9 10 10 10 9 9 10 11 9 8 5 3 1 3 3 3 3 0 2 3 2 2 3 4 2 6 1 2 1 2 2 4 3 1 2 2 5 7 7 5
12 13 13 14 15 15 15 15 15 16 14 4 2 4 2 2 1 1 3 3 3 1 3 2 2 2 1 2 6 4 2 2 2 3 3 3 6 4 4 3 2 2 2 8 5 4 4 5 5 4 5 4 5 8 11 10 9 8 6 6 1 2 3 3 2 1 2 1 4 2 1 4 2 2 1 1 2 1 2 2 5 3 3 2 5 6 4
10 11 12 13 14 15 15 14 14 15 15 7 4 3 1 1 1 1 1 3 1 1 1 2 1 1 2 2 4 2 1 5 2 1 4 2 3 4 2 1 2 2 2 5 4 3 4 2 3 2 1 2 1 1 3 3 7 8 8 7 4 1 2 2 2 1 1 1 0 1 2 2 2 3 2 1 2 1 0 3 4 3 2 1 3 4 3
9 10 11 11 12 13 13 13 13 13 14 10 1 2 3 2 1 1 1 1 3 1 1 3 3 2 1 1 1 3 2 1 3 3 2 1 1 1 1 2 2 1 3 3 1 1 0 2 3 3 1 1 2 1 2 1 2 5 5 4 3 3 2 0 1 1 1 2 2 1 3 3 5 2 6 2 2 2 2 2 2 3 3 2 3 3 3
8 8 9 10 10 11 12 13 12 13 14 11 1 2 3 3 1 2 2 1 3 1 3 5 2 3 2 1 1 2 2 3 1 1 3 1 1 1 2 1 1 1 3 4 2 2 1 3 1 2 2 2 1 0 1 1 1 2 4 3 4 4 3 1 2 2 3 2 2 2 2 1 4 8 6 4 3 3 4 2 3 4 1 3 2 3 3
7 7 8 8 9 9 10 11 12 12 12 13 4 2 4 4 2 2 1 2 1 1 1 3 4 2 2 2 2 2 2 2 2 3 3 3 3 1 1 1 2 2 2 2 1 2 2 3 1 0 1 1 2 0 1 0 2 1 1 2 4 3 2 1 1 3 2 2 2 2 3 1 5 7 6 5 4 4 4 4 2 6 3 2 2 2 2
7 6 7 7 8 8 9 9 11 12 12 12 5 2 3 4 2 1 2 2 0 1 2 6 6 3 3 2 2 2 3 2 1 1 1 1 1 2 2 1 3 2 2 2 1 2 1 2 2 2 1 2 0 1 2 2 2 1 2 1 0 1 1 1 2 2 2 4 3 3 3 2 2 7 7 5 6 5 2 3 4 7 5 4 3 3 1
6 6 6 6 7 8 8 8 9 11 12 11 5 1 2 4 5 1 4 2 1 1 1 2 2 1 1 3 3 2 0 1 1 2 2 2 2 1 2 2 2 1 3 3 1 2 2 2 1 0 1 3 2 1 2 2 2 3 4 2 2 0 1 1 0 2 3 2 3 3 5 0 6 5 7 6 5 4 3 4 4 7 6 5 4 3 3
6 6 5 6 6 7 7 7 8 9 10 10 6 1 1 3 4 4 2 1 1 2 2 4 5 6 5 4 4 3 2 1 0 1 2 2 2 2 2 2 1 0 2 1 3 1 1 2 2 2 1 2 1 3 1 1 2 5 3 1 1 3 3 2 3 3 2 2 1 2 3 3 6 12 5 3 4 1 5 5 3 5 4 6 6 4 3
5 5 5 5 5 6 6 7 7 8 9 9 6 2 1 1 2 4 3 1 1 3 0 1 2 4 4 5 5 2 7 5 4 3 2 1 1 2 1 2 4 3 2 3 1 3 3 2 3 1 1 0 3 2 1 1 2 4 2 2 2 2 3 2 3 5 2 4 5 3 1 4 9 9 4 6 3 4 6 3 4 7 5 5 4 5 5
4 4 4 4 5 5 5 6 6 6 7 9 6 1 2 1 2 4 3 1 2 3 2 1 2 3 5 5 4 3 3 0 2 2 2 3 1 2 2 1 2 2 2 2 2 1 1 1 2 2 3 3 1 2 2 2 3 4 1 2 2 9 4 0 1 6 5 3 3 0 1 2 5 3 1 5 6 5 4 3 3 5 6 6 4 5 6
4 4 4 4 4 4 4 5 5 5 7 7 5 3 1 4 3 6 3 2 2 3 2 2 1 4 4 7 9 9 8 6 4 3 4 2 2 2 4 3 3 1 1 1 3 1 1 4 3 2 1 4 4 2 2 3 1 4 3 8 2 2 1 2 1 3 5 8 7 2 2 4 6 7 4 2 4 3 3 4 4 5 4 6 5 5 5
4 4 3 3 3 3 3 4 4 5 5 5 3 2 2 2 4 4 1 2 1 4 1 1 3 2 1 4 2 2 3 4 8 9 6 6 5 2 0 3 2 2 2 3 1 2 3 1 1 1 4 3 4 3 5 4 5 4 2 3 4 4 5 5 4 2 2 3 5 9 12 9 8 8 6 5 4 4 4 6 5 4 5 6 7 6 6
4 3 3 3 3 3 3 3 4 4 4 4 4 2 2 2 1 2 1 2 0 1 3 2 1 1 1 2 3 4 5 3 3 6 7 8 9 8 4 2 5 3 3 4 2 4 2 3 2 3 4 4 6 4 2 3 2 7 5 4 3 4 8 6 8 5 7 5 3 2 2 5 6 6 7 9 8 7 7 7 6 5 5 6 6 6 6
3 4 3 3 3 3 2 3 3 3 2 3 4 2 1 2 1 3 1 2 3 1 1 2 1 2 3 4 2 1 1 3 5 6 8 10 11 10 4 4 1 3 3 2 3 6 3 2 2 2 4 4 5 5 4 4 2 3 5 4 1 5 10 5 6 7 9 9 11 9 6 8 9 8 8 7 6 5 7 7 7 7 7 7 7 7 6
3 3 3 3 3 2 2 3 3 3 2 1 3 2 3 3 3 3 1 0 1 1 2 3 3 3 4 8 4 2 1 2 4 5 6 8 9 8 6 5 3 3 3 3 2 1 0 1 3 6 5 2 5 2 1 2 4 4 4 3 6 6 8 4 4 6 7 8 6 7 5 5 5 10 13 12 11 8 8 6 6 7 7 7 8 8 7
3 3 3 3 2 2 2 3 3 3 2 3 3 3 3 4 2 4 3 3 2 1 2 3 4 6 5 4 2 3 4 3 4 6 7 7 8 8 8 8 6 4 4 5 3 4 3 6 6 1 2 2 3 4 2 1 1 4 8 7 9 9 9 8 8 6 8 7 7 7 7 7 7 3 5 7 7 7 8 8 8 8 8 7 7 8 8
3 3 3 3 2 2 2 3 2 3 3 3 3 4 3 3 4 4 4 3 1 2 2 5 5 3 1 2 6 4 2 3 3 4 5 6 8 9 9 9 8 7 4 4 3 2 3 3 2 3 3 2 2 1 3 5 7 11 9 6 10 11 8 12 12 11 10 11 7 6 7 7 5 3 5 6 5 7 8 8 7 7 7 7 6 7 8
3 3 3 2 2 2 2 3 2 3 3 3 2 1 1 2 1 3 5 5 3 1 2 4 3 0 1 3 2 2 3 1 2 2 1 3 5 6 6 6 5 5 2 3 3 3 2 1 2 1 2 3 3 1 2 3 7 9 7 9 10 10 9 9 9 10 10 9 4 6 8 9 3 2 2 3 5 7 7 7 7 7 7 6 6 6 7
3 2 2 2 2 2 2 2 3 2 3 1 1 1 0 1 2 1 6 6 3 1 0 2 4 5 4 1 2 3 5 3 3 3 5 4 2 1 3 5 3 4 1 3 2 1 2 3 2 1 1 3 3 4 4 5 6 4 5 8 9 11 11 12 10 11 12 9 4 2 3 5 1 1 5 6 5 7 6 6 6 6 5 5 6 7 7
2 2 2 2 1 2 3 2 2 1 1 2 1 1 1 2 2 2 6 5 3 1 0 5 3 0 3 2 1 2 2 2 1 0 1 1 3 3 4 2 3 6 5 5 4 2 4 2 3 4 4 6 7 4 5 8 12 13 5 5 5 7 8 10 8 10 11 8 3 4 7 7 7 8 4 4 6 7 8 6 5 4 4 5 5 5 7
1 1 1 1 2 2 2 3 3 2 2 3 7 8 8 8 8 2 5 4 2 1 1 1 3 3 3 3 4 1 1 2 1 2 1 2 2 1 2 2 2 2 5 3 3 3 1 3 4 6 3 5 4 2 4 10 11 14 5 4 6 8 9 9 9 9 7 7 10 10 10 9 5 8 7 3 3 5 6 6 4 2 3 5 6 8 8
0 1 1 1 2 4 4 3 4 4 2 3 2 1 2 11 8 8 4 4 1 1 2 1 2 3 4 2 3 2 3 3 1 2 1 2 1 1 1 2 2 2 4 5 0 1 0 1 2 2 1 4 2 2 4 10 13 16 14 11 9 8 7 7 6 7 8 8 9 11 9 3 5 3 3 4 5 4 4 3 3 4 6 6 7 8 9
1 2 4 1 1 1 2 5 2 1 1 1 3 2 1 7 9 7 7 3 2 2 2 2 2 2 3 3 2 0 1 2 1 0 2 2 1 1 1 1 2 2 1 1 2 2 2 3 4 3 4 2 2 6 9 11 11 10 8 8 6 4 3 5 8 9 8 6 7 8 6 4 5 5 6 6 5 5 5 5 5 5 5 7 7 9 9
1 2 2 3 2 4 3 1 1 0 0 1 1 4 5 8 8 5 5 2 2 2 2 1 1 3 1 3 4 0 2 1 1 0 0 0 1 2 1 1 3 1 2 3 2 2 3 3 3 3 3 3 6 7 8 8 10 10 8 9 7 6 7 8 7 2 3 5 7 6 6 7 8 7 5 5 5 4 4 4 4 4 6 7 8 8 8
3 2 3 3 3 1 1 2 2 1 2 2 4 11 15 12 5 3 2 3 3 3 3 2 4 4 4 3 2 1 3 4 2 2 0 1 1 1 1 0 2 1 2 2 3 4 2 3 2 3 4 5 7 8 9 9 11 12 12 10 8 7 7 7 4 3 4 6 7 6 7 8 7 4 4 4 4 3 3 5 6 6 7 8 8 8 9
2 1 3 1 1 2 2 1 0 1 4 9 10 5 2 3 3 3 2 2 2 3 2 2 5 4 1 3 4 1 1 2 2 2 1 1 2 1 0 2 1 2 3 3 1 3 4 2 3 3 6 9 11 12 12 10 10 10 11 10 10 8 7 5 6 7 8 6 6 7 5 6 6 5 5 6 5 5 6 5 5 4 5 6 7 7 8
4 3 2 0 1 2 2 2 2 5 6 3 1 1 1 2 2 2 3 2 1 2 2 4 5 4 5 6 5 2 2 2 3 1 3 2 2 1 2 2 1 2 1 3 1 1 3 2 3 3 6 5 4 6 5 5 7 7 9 9 8 8 6 6 9 12 11 8 8 10 9 7 7 6 5 5 4 4 4 3 4 5 5 6 7 7 8
2 2 2 2 1 2 1 2 3 3 2 2 1 2 1 2 2 1 2 1 2 3 3 5 3 4 6 7 6 3 3 3 3 3 2 1 2 2 1 1 1 2 2 2 1 2 3 2 1 2 5 4 3 4 3 5 8 9 7 6 6 7 7 8 9 9 9 5 4 6 6 6 5 5 4 4 4 4 4 4 4 4 4 5 6 7 8
1 2 2 2 2 2 2 3 1 0 1 2 2 2 1 1 2 1 2 3 4 3 3 3 1 2 3 3 3 5 1 1 1 1 1 2 1 1 1 2 1 2 2 3 1 3 2 2 3 3 3 2 4 7 6 6 6 9 7 4 4 5 7 8 10 8 6 4 4 5 5 5 5 4 4 4 4 4 5 5 5 4 5 5 5 7 8
2 1 2 2 1 1 1 1 1 1 1 1 1 1 0 2 0 2 3 3 2 2 3 5 3 3 2 6 4 3 2 0 1 1 2 2 1 2 1 1 2 1 3 1 1 2 1 2 2 4 4 4 5 7 7 8 9 9 9 4 4 5 7 9 9 7 7 7 7 6 5 5 5 3 4 4 4 4 4 5 5 4 3 4 5 6 8
3 2 0 1 1 1 1 1 1 1 0 1 1 1 1 1 3 3 3 3 1 2 0 2 1 1 2 1 1 1 1 1 2 2 2 1 1 1 1 1 1 2 2 2 2 1 2 3 4 4 1 3 7 8 8 8 8 7 7 5 4 5 8 9 9 9 8 7 7 6 6 6 5 4 3 4 3 4 4 3 4 2 2 4 5 7 8
1 2 2 2 1 2 1 0 1 1 0 0 2 2 3 2 2 3 2 2 3 2 3 4 3 2 1 2 1 2 3 2 1 1 1 1 1 1 2 2 3 0 1 3 2 4 2 2 5 2 5 7 6 8 9 9 8 8 7 5 4 5 6 7 6 6 7 4 4 4 4 4 3 3 4 3 4 4 2 2 2 0 2 4 5 7 8
3 1 1 1 1 0 0 1 1 1 3 3 3 3 3 1 1 3 3 1 1 2 3 2 0 2 3 2 1 1 1 0 2 2 1 1 2 2 2 2 0 0 3 2 2 2 2 4 1 3 7 9 10 9 9 9 8 8 8 8 5 5 5 6 7 8 8 7 7 6 5 5 4 5 5 4 3 2 3 2 1 1 2 4 6 7 7
2 1 1 1 2 1 0 1 0 2 4 3 4 4 2 2 1 2 1 1 2 1 1 3 3 3 3 1 2 0 2 2 3 1 2 1 2 3 2 1 1 4 2 1 2 5 3 4 7 8 9 11 12 12 11 10 9 7 6 7 5 3 4 2 5 7 4 5 6 7 6 5 5 5 4 4 3 2 1 1 2 1 2 4 5 6 6
2 2 2 2 1 1 1 2 4 4 1 2 3 3 4 1 1 2 1 1 2 2 1 1 2 2 2 2 2 2 1 1 3 2 1 3 3 1 0 3 3 2 2 4 4 2 3 7 9 9 11 12 12 12 11 10 9 10 9 6 6 4 3 5 8 6 4 5 3 5 5 6 6 4 3 3 3 2 2 3 3 1 2 3 4 5 5
1 0 0 0 3 2 2 4 1 2 2 3 2 2 1 1 1 2 2 2 1 1 3 3 2 2 2 2 1 1 1 2 2 2 2 2 1 2 1 2 4 4 3 2 2 5 7 5 8 10 11 11 10 10 10 10 10 10 10 8 7 6 7 7 7 8 9 5 2 3 4 5 5 5 5 3 4 4 4 4 3 2 2 3 4 4 4
2 2 1 2 2 2 3 1 1 4 0 0 2 3 2 2 3 4 2 2 2 2 1 3 1 1 0 2 1 2 2 3 2 0 2 2 3 2 2 2 1 4 1 3 5 5 7 10 9 10 10 10 10 10 10 10 9 10 9 9 8 6 6 8 8 6 7 5 4 3 4 3 4 5 5 4 6 6 5 4 3 3 3 3 4 4 4
1 1 1 0 2 4 3 1 2 5 1 1 1 1 1 3 5 2 2 3 2 2 2 2 1 1 1 1 1 1 0 1 1 1 2 3 2 1 0 3 1 2 5 5 6 7 8 8 9 9 8 9 10 10 10 10 10 10 10 10 8 6 6 7 7 8 8 7 6 3 4 4 6 6 5 6 7 7 5 4 4 4 4 3 3 4 5
1 0 3 2 4 2 2 3 0 2 2 1 2 3 2 3 3 2 3 2 3 2 1 1 1 1 1 0 0 1 0 2 2 3 3 4 1 2 4 6 6 5 7 6 7 7 8 8 8 9 10 10 11 11 11 10 10 10 10 10 10 8 6 6 6 7 7 7 6 5 6 6 4 4 6 8 8 6 6 5 4 4 3 3 4 4 5
0 1 3 2 4 5 5 3 2 5 6 7 5 4 1 2 3 2 1 2 1 2 1 2 2 1 1 1 1 1 2 1 1 1 4 1 2 4 6 6 7 6 6 8 8 8 7 7 8 9 9 10 11 11 12 12 11 10 10 10 10 9 6 5 6 7 6 6 4 4 5 3 4 6 6 7 7 6 5 5 4 4 3 3 4 4 4
Wind_Direction
350 347 344 340 342 342 341 342 344 346 344 356 11 227 31 23 35 295 312 352 347 78 67 38 58 63 35 223 54 355 54 7 342 9 2 37 19 40 45 13 50 33 50 69 76 50 79 9 71 116 78 59 17 322 326 328 356 313 38 226 23 283 29 80 72 94 114 192 225 296 14 279 205 42 28 25 27 348 0 11 56 106 140 167 135 108 108
351 348 343 341 343 343 342 343 346 348 10 31 295 59 88 179 9 337 347 353 273 70 81 79 77 78 60 66 65 22 66 25 20 27 16 28 17 51 36 58 41 81 36 67 73 306 112 32 65 93 321 66 327 348 360 352 38 2 30 333 11 271 50 326 126 135 162 196 194 167 154 52 51 27 17 11 19 42 355 354 277 111 26 342 179 162 141
352 350 344 343 345 344 343 344 345 351 0 95 311 80 164 134 228 321 333 2 23 72 351 116 99 82 71 61 43 19 58 34 32 26 34 15 33 262 51 18 319 72 43 82 79 39 19 120 11 75 55 72 314 356 0 0 33 30 37 34 321 60 35 318 167 156 165 182 192 169 162 26 15 38 4 24 19 9 310 160 164 119 103 293 101 101 110
352 351 346 346 347 345 344 345 347 351 0 67 19 93 68 17 72 329 22 12 34 70 357 32 91 96 72 62 35 24 42 38 24 1 58 20 42 50 60 22 25 51 71 58 44 53 30 62 149 181 108 64 24 320 334 10 24 19 40 29 27 92 67 32 341 323 359 55 67 51 334 28 71 13 19 18 10 5 6 350 147 107 141 101 36 112 137
352 352 349 349 349 347 345 346 347 351 360 60 95 61 58 130 59 343 2 299 54 43 29 31 359 93 291 72 357 31 23 322 54 0 70 14 19 64 46 10 26 32 68 79 74 26 75 58 83 34 94 48 327 299 322 350 14 357 26 2 72 96 89 24 49 66 82 94 84 75 17 60 65 6 18 10 23 360 17 39 80 339 137 91 105 126 131
353 354 352 351 351 349 347 347 349 347 352 166 57 51 343 70 147 211 318 10 358 359 36 359 74 59 88 80 323 35 46 42 33 354 72 229 12 44 36 42 45 47 65 74 90 30 60 36 75 47 20 312 30 22 15 25 349 5 49 358 58 84 99 84 89 88 82 73 87 67 72 50 22 351 339 5 15 20 52 66 59 344 360 119 154 168 131
355 355 354 353 353 351 349 348 349 352 341 18 63 102 0 58 123 93 297 91 13 324 317 339 58 61 38 100 41 68 54 61 35 9 5 33 30 0 90 26 14 20 346 86 94 346 112 78 29 331 63 33 356 53 327 24 7 15 41 40 25 110 68 88 97 112 95 74 52 17 18 19 320 6 358 346 0 34 30 37 9 350 79 92 143 147 127
355 356 356 355 354 354 353 351 351 353 345 339 70 32 64 69 57 101 21 75 83 358 351 12 37 65 345 81 12 66 45 65 42 53 17 71 45 333 73 50 42 32 49 53 72 61 42 80 106 130 129 110 335 62 334 323 9 10 38 354 38 294 113 128 144 113 98 43 358 340 1 355 358 25 50 82 156 105 109 135 147 214 116 119 139 132 133
357 358 357 358 356 357 356 355 355 352 349 72 54 57 10 71 6 344 127 73 8 343 13 21 25 77 19 65 73 91 34 87 23 71 356 38 81 57 88 82 85 35 55 58 64 360 34 69 58 158 232 38 98 321 122 244 26 6 28 8 29 352 115 51 161 150 128 40 327 12 358 53 100 90 68 68 88 98 76 95 65 142 112 121 150 158 153
358 359 360 359 359 360 358 0 1 357 347 98 92 69 0 55 26 337 93 90 348 35 317 337 236 69 359 22 33 74 55 80 198 99 59 64 62 136 121 128 83 71 60 52 23 0 234 349 10 34 30 60 70 30 57 275 325 32 52 329 39 18 140 152 168 172 138 115 296 335 310 162 167 120 74 55 79 63 99 88 58 36 345 165 177 108 116
359 1 1 1 2 2 2 3 6 6 360 57 84 75 19 308 161 105 357 104 85 54 358 31 36 60 304 62 107 77 99 93 92 87 93 20 51 68 155 131 76 76 52 33 354 66 90 88 87 83 74 66 66 48 77 66 39 14 12 81 61 65 124 100 299 196 142 196 338 282 212 210 152 87 49 346 352 2 68 81 37 62 318 31 45 99 109
0 1 2 4 3 3 5 6 8 14 26 12 31 91 64 93 328 104 101 98 81 139 72 63 5 340 136 185 337 84 83 74 71 350 101 76 80 167 99 87 89 83 74 129 128 114 116 100 93 84 70 67 66 58 49 46 35 29 354 322 134 121 114 109 274 147 146 160 217 198 218 198 88 75 0 318 271 251 277 328 108 147 137 113 103 100 95
3 2 2 4 5 3 5 6 10 14 12 359 5 72 56 114 340 56 99 106 107 91 117 100 349 320 325 157 99 82 68 93 60 78 70 107 91 68 36 64 49 85 39 142 152 121 95 74 58 46 69 41 62 57 43 32 16 8 38 21 338 166 154 142 109 86 117 181 183 214 169 60 298 317 5 93 135 100 204 139 91 93 86 70 103 95 109
3 4 1 3 5 4 4 5 8 12 14 4 39 38 58 209 296 29 77 100 95 141 62 109 327 243 117 71 94 113 116 96 72 321 109 29 98 95 99 352 9 301 177 140 98 108 116 165 130 168 112 335 320 235 34 20 32 9 2 5 356 212 124 209 127 285 190 122 154 25 25 243 166 156 103 115 102 62 303 223 115 96 89 97 113 104 96
2 3 2 0 4 3 3 3 7 10 12 9 122 50 35 45 46 104 182 55 120 110 222 158 185 178 222 111 220 139 130 102 166 108 359 330 223 112 45 47 20 82 169 213 138 40 105 151 171 185 135 236 233 195 54 316 46 26 10 2 20 27 292 39 262 131 269 189 157 156 164 214 170 130 125 135 78 73 85 312 175 134 116 94 117 109 90
358 3 2 1 1 4 1 2 3 8 10 360 78 35 57 31 145 86 66 102 138 138 197 210 127 150 162 147 293 301 175 162 117 125 159 130 286 227 159 317 35 172 102 67 50 98 115 220 173 192 207 185 40 26 206 16 217 66 28 19 75 68 56 112 273 131 180 193 221 191 185 108 98 158 171 153 176 179 187 228 229 129 163 141 168 124 92
354 358 1 359 1 359 2 1 1 6 10 11 358 358 42 11 359 6 0 14 25 344 44 117 124 118 118 147 215 197 192 189 175 190 178 186 168 350 280 17 52 39 94 126 100 168 137 81 70 293 66 133 143 234 75 314 189 189 106 30 58 66 14 326 183 170 212 210 215 232 234 152 167 169 158 166 177 175 218 278 217 147 178 158 150 130 83
348 352 356 359 360 357 358 1 2 3 7 11 360 14 33 5 14 225 57 59 2 264 200 178 152 175 208 192 215 89 105 103 100 3 285 80 319 190 154 193 184 63 307 192 138 132 107 165 198 200 197 148 275 108 239 128 192 168 157 77 136 40 104 0 252 255 166 210 240 302 252 226 159 171 165 158 160 190 234 237 107 166 168 177 158 154 161
342 348 349 355 357 357 354 357 3 3 6 10 354 231 66 9 4 31 111 97 36 300 104 238 334 225 78 76 46 137 154 325 163 197 142 184 157 62 79 67 315 192 17 147 148 176 199 131 15 292 208 155 190 216 110 196 193 90 130 137 142 187 137 99 323 212 218 209 251 270 282 207 141 127 161 159 175 215 220 67 112 154 171 171 194 206 198
338 342 343 349 355 356 354 356 358 5 4 18 8 43 31 353 16 1 11 79 92 281 239 203 181 206 178 200 168 174 156 171 342 229 182 225 124 165 169 181 159 257 124 180 151 61 240 185 142 142 217 169 187 126 203 212 114 167 187 286 277 161 182 190 179 148 80 180 239 297 274 83 149 131 143 181 237 65 91 135 170 177 178 183 196 222 216
332 334 338 343 349 352 356 352 357 3 3 21 20 335 182 37 356 25 10 154 106 299 292 191 267 241 193 226 232 231 191 240 167 225 206 4 120 209 223 211 136 177 161 185 223 173 209 173 174 193 25 218 126 202 240 92 230 223 228 185 223 161 238 177 192 192 168 180 192 203 13 96 171 172 183 185 216 108 147 163 178 187 202 203 216 209 227
325 328 333 337 342 347 351 349 357 4 3 10 15 343 218 21 349 4 354 310 209 225 308 357 308 271 248 259 267 243 245 5 158 37 155 186 169 269 7 43 170 202 129 132 112 124 197 107 110 175 185 157 133 238 145 213 233 122 203 224 233 183 220 174 246 171 208 198 209 114 284 251 203 233 42 121 133 137 157 197 224 182 202 210 229 234 224
325 324 327 330 338 338 345 342 356 8 2 9 15 31 21 336 330 346 317 242 225 260 276 268 226 247 253 247 239 241 246 251 242 210 229 221 194 194 220 215 234 151 105 231 243 325 102 170 211 116 112 205 194 174 204 248 316 157 191 201 305 22 19 112 285 212 255 278 246 268 268 236 236 229 235 205 155 162 190 205 208 203 211 193 226 243 253
326 318 315 325 328 329 326 333 349 359 6 5 20 6 341 326 318 321 66 71 53 315 255 159 261 140 109 72 69 125 189 210 218 221 203 207 234 213 219 261 27 98 239 204 354 217 147 128 92 173 242 184 163 204 209 214 222 182 207 195 215 192 159 186 232 131 152 244 147 209 227 221 230 231 222 224 239 239 207 212 221 231 210 210 222 240 252
319 314 310 310 318 325 326 314 332 357 8 346 332 336 302 266 323 354 271 274 88 55 312 317 294 31 32 327 287 263 230 205 179 195 195 206 220 231 245 133 188 241 247 155 156 112 123 165 166 181 227 185 184 234 156 252 235 162 221 217 159 206 179 205 225 193 214 257 126 220 288 257 245 240 242 248 241 209 198 211 220 232 232 229 231 220 237
316 313 309 305 302 318 324 315 314 328 321 6 355 324 324 299 294 314 309 57 95 102 245 288 144 152 295 300 259 279 106 201 212 196 204 208 213 228 232 120 146 69 91 119 193 203 163 172 153 151 227 222 197 249 205 202 35 164 239 232 170 113 147 215 181 207 235 266 265 246 241 260 246 232 236 239 234 219 201 204 218 230 234 229 221 213 236
320 310 304 302 300 298 306 314 301 306 345 26 302 298 281 279 257 258 204 223 191 166 174 248 308 313 345 320 314 329 236 222 214 218 222 218 223 227 224 226 198 156 168 120 24 63 73 214 187 221 201 260 164 238 114 164 204 177 225 187 131 149 210 155 154 212 231 232 234 173 222 253 221 212 221 224 226 222 230 211 211 220 225 230 235 228 222
309 312 300 301 308 290 294 289 298 304 315 306 293 287 277 263 239 233 231 287 299 311 324 301 293 321 323 273 264 293 292 238 218 221 226 222 217 219 223 223 215 203 190 169 178 199 215 210 227 112 101 135 189 217 171 32 62 248 244 218 177 202 202 169 210 218 246 232 218 183 224 263 268 228 189 207 200 197 211 220 222 220 224 230 235 251 251
309 302 302 303 306 314 280 273 288 304 318 306 319 295 251 243 246 217 220 198 255 87 301 281 273 271 7 2 328 312 322 284 277 254 243 228 214 214 215 214 212 221 205 205 223 172 191 245 91 172 189 191 115 227 115 233 227 240 228 195 178 225 194 190 215 228 246 270 265 174 203 230 251 191 193 195 175 186 204 219 219 226 235 230 235 243 257
318 309 303 307 310 312 292 269 280 310 332 310 291 234 163 120 105 210 189 195 214 36 33 347 322 75 330 279 283 276 305 2 55 51 325 238 220 214 212 197 207 206 196 211 173 213 145 205 247 255 129 151 103 10 243 255 250 253 228 220 206 213 216 221 223 220 245 239 222 182 213 235 254 76 218 202 177 192 208 215 214 216 222 226 233 242 243
319 326 311 312 322 292 279 288 269 302 335 301 281 240 193 248 110 163 174 195 187 266 50 211 267 310 300 162 277 313 344 15 92 68 73 63 70 159 151 135 103 116 68 11 336 197 134 228 153 190 95 179 139 206 229 233 255 261 202 198 201 207 214 227 226 231 242 253 92 143 201 238 197 225 235 215 186 191 206 223 220 218 225 220 224 236 249
330 324 341 324 293 286 292 315 301 322 252 256 235 20 39 28 89 112 171 185 179 145 26 320 303 324 338 311 343 312 338 41 99 121 79 17 74 85 117 122 145 174 205 185 196 159 223 162 242 200 172 177 177 234 215 233 249 258 220 159 186 205 220 234 231 238 240 234 172 231 240 229 189 211 239 157 193 187 207 218 219 220 226 243 243 240 249
357 346 329 313 278 290 281 278 288 253 248 301 301 280 246 247 254 273 151 170 173 134 223 300 323 337 302 8 328 40 352 207 105 357 109 357 131 153 137 81 108 186 194 191 183 224 180 201 216 242 227 141 199 234 243 241 239 256 263 207 225 219 222 229 236 243 237 210 198 219 234 242 201 208 237 200 168 181 192 211 217 186 211 228 236 245 245
235 38 222 249 272 261 248 248 226 260 285 302 290 158 189 198 217 228 199 206 228 219 210 246 301 309 298 333 287 105 324 357 334 3 355 65 56 239 145 151 138 211 171 216 130 201 114 129 195 188 102 213 197 243 249 247 237 252 265 261 247 239 229 235 237 240 234 216 207 220 238 74 98 130 153 175 194 191 190 198 188 217 227 236 250 257 268
89 211 258 239 248 231 183 163 136 175 346 305 278 281 91 163 176 166 194 204 139 184 220 220 213 295 324 321 295 279 18 289 352 24 323 62 351 298 167 230 117 259 120 66 225 196 207 217 145 179 235 122 196 237 249 267 267 256 251 254 240 223 209 242 241 226 220 198 199 214 216 179 185 189 191 183 201 193 192 209 213 226 246 253 260 268 273
167 175 136 199 173 119 111 173 223 179 344 11 34 73 121 132 144 149 183 246 341 340 296 291 204 263 215 297 310 66 247 192 110 199 124 303 148 50 318 332 253 235 103 184 238 166 244 126 157 236 155 215 237 227 248 252 268 276 268 258 240 200 225 232 258 215 184 184 190 190 189 198 210 208 193 201 203 196 186 225 224 214 239 255 260 266 269
188 254 212 139 133 221 170 63 107 225 38 352 98 120 117 112 92 113 149 285 222 209 267 320 285 250 235 277 279 315 340 329 8 339 96 305 353 18 1 62 257 100 218 222 231 243 146 130 226 245 214 228 249 241 253 270 273 274 272 257 241 227 234 241 233 176 160 162 166 174 183 188 194 192 197 208 214 172 184 223 235 237 240 247 257 266 279
209 214 148 122 183 123 119 145 119 102 129 127 135 129 204 227 136 168 176 234 222 217 224 204 251 274 214 237 256 64 359 312 58 320 304 119 263 171 15 257 342 316 276 285 311 79 117 188 223 241 266 252 259 276 276 271 270 270 269 266 257 231 218 211 179 175 160 154 168 173 172 190 203 199 209 228 216 213 220 231 247 244 250 258 265 278 292
164 137 126 49 299 85 49 82 3 158 160 150 261 291 167 181 168 203 203 214 205 231 198 225 253 236 225 241 255 123 277 309 287 200 270 146 285 295 181 279 75 288 263 270 185 168 254 224 229 250 265 273 284 274 274 280 288 280 278 269 256 237 197 191 187 185 182 188 188 184 187 192 208 218 205 224 232 233 235 239 243 242 238 255 268 284 294
131 128 118 131 113 85 70 43 347 165 181 199 177 265 220 158 213 222 123 205 242 228 183 237 238 241 228 243 272 273 135 185 227 256 255 255 161 281 64 267 77 295 283 275 215 185 263 285 216 258 270 263 261 309 304 303 299 298 295 279 256 231 202 191 193 198 194 174 159 172 180 193 194 217 204 202 219 238 244 239 240 248 255 261 271 290 299
106 117 153 140 63 10 341 324 317 154 143 211 210 199 146 215 215 206 201 230 237 231 211 239 211 242 219 217 198 241 115 306 41 17 271 263 82 241 196 257 105 278 272 256 155 203 230 249 232 233 253 271 306 325 317 299 299 309 302 286 254 225 207 201 192 187 180 152 145 147 169 182 194 203 216 220 218 238 255 270 270 267 260 257 285 304 309
101 54 46 14 332 298 267 161 63 145 200 240 317 288 239 297 333 234 221 234 242 220 200 191 222 230 212 198 208 226 196 163 154 187 230 242 95 264 291 142 151 220 259 71 138 228 254 259 250 250 241 254 302 316 322 330 335 326 317 303 247 218 203 196 188 186 191 178 171 176 179 190 191 195 197 197 210 224 246 253 267 263 258 292 308 307 309
249 168 201 116 119 120 215 202 189 191 157 185 60 336 179 242 223 222 228 223 260 246 108 174 2 96 76 137 173 225 5 160 224 177 230 190 105 276 264 191 124 239 242 151 218 221 227 233 239 245 225 352 338 324 325 329 326 320 303 292 253 230 210 197 191 188 191 188 179 184 190 192 200 195 187 191 199 217 229 242 261 257 293 309 308 310 312
167 186 186 189 153 141 174 61 206 177 288 125 141 215 195 224 195 192 236 213 185 214 187 207 186 216 288 158 263 141 165 152 53 152 91 61 237 175 243 240 229 203 97 229 231 234 251 254 248 306 13 344 329 327 331 331 332 326 312 279 247 238 229 221 198 180 181 181 182 180 176 184 173 156 165 181 195 224 249 249 200 220 308 307 309 318 320
146 64 16 166 179 343 51 299 315 145 225 205 207 236 197 256 73 184 231 76 125 314 71 37 75 200 264 119 171 139 254 122 83 253 262 179 222 190 222 260 66 187 242 260 251 273 264 260 44 30 347 332 326 323 325 321 324 325 313 298 257 236 251 251 225 200 179 177 185 181 190 178 177 176 180 187 188 207 247 266 107 193 309 311 324 326 334
136 170 119 89 275 283 204 247 110 237 241 199 211 206 215 243 198 216 70 79 163 152 221 242 221 232 255 143 286 107 160 160 197 178 124 172 270 247 206 107 238 255 222 222 241 243 257 27 0 336 334 331 329 329 328 325 321 321 313 300 279 193 176 200 317 303 271 199 183 188 180 164 176 172 185 188 189 191 194 166 155 140 321 334 336 336 339
97 42 86 102 99 279 39 227 209 214 282 198 234 221 235 234 247 301 284 201 253 287 308 102 230 253 268 145 187 165 146 200 240 123 162 220 235 267 138 252 250 225 232 226 233 258 357 353 333 328 330 328 324 324 323 325 329 331 323 298 282 256 208 170 194 221 269 283 219 182 166 169 168 166 163 191 176 113 125 142 134 107 5 354 345 345 343
197 248 110 226 241 197 195 233 328 293 230 244 290 252 274 69 306 263 185 187 252 256 247 220 197 174 198 113 275 300 168 189 240 183 215 285 59 270 282 232 243 235 215 255 1 11 327 317 312 316 317 317 316 317 320 321 323 321 319 309 291 258 245 233 202 191 194 198 179 160 174 168 161 169 190 170 102 107 131 133 125 91 56 26 12 10 1
106 133 159 218 209 202 241 307 0 278 310 31 277 278 241 233 250 267 263 156 196 237 230 224 238 203 212 115 219 193 209 155 240 188 171 220 239 255 257 272 272 276 68 59 336 316 309 308 315 317 313 312 314 314 314 313 310 308 310 310 308 296 254 236 225 168 150 157 133 137 181 180 183 189 169 130 125 125 126 124 115 96 61 36 30 24 13
83 334 44 175 263 242 220 266 276 279 358 6 240 239 333 278 273 275 164 183 184 149 157 131 163 265 57 203 200 231 260 189 268 105 221 251 246 250 154 273 256 301 328 335 313 304 309 316 315 308 307 305 308 310 313 312 311 309 309 310 306 289 264 243 225 182 167 141 137 207 199 188 202 195 155 131 128 132 130 121 109 96 67 58 47 38 22
22 147 251 236 240 296 95 253 259 299 296 191 226 247 199 260 289 279 208 181 146 142 134 219 120 147 184 144 30 280 148 117 198 228 274 308 98 242 280 290 317 339 323 321 314 315 317 319 318 317 316 318 315 316 317 317 319 316 315 312 307 294 272 251 217 173 154 130 149 190 197 205 204 129 118 129 135 137 122 112 103 89 84 75 58 38 31
129 235 252 232 229 253 255 305 299 252 263 266 243 238 177 267 235 228 93 108 145 234 185 140 177 129 98 265 251 42 113 197 228 220 282 224 189 286 309 324 336 339 324 321 325 324 317 318 322 323 320 314 316 319 317 318 317 318 320 318 311 301 264 208 187 167 144 126 155 182 185 169 123 126 133 138 143 139 134 125 114 104 95 80 59 47 34